| time (UTC) | temp F | wind direction | speed MPH | gust MPH | rain 1hr in | rain 24hr in | rain mn in | humidity % | barometer mb |
| 20260504231609 | 71 | 298 | 0.0 | 2.0 | 0.00 | 0.00 | 0.00 | 36 | 1001.3 |
| 20260504231502 | 71 | 298 | 0.0 | 2.0 | 0.00 | 0.00 | 0.00 | 36 | 1001.3 |
| 20260504231100 | 72 | 298 | 0.0 | 3.0 | 0.00 | 0.00 | 0.00 | 35 | 1001.3 |
| 20260504230559 | 72 | 298 | 0.0 | 7.0 | 0.00 | 0.00 | 0.00 | 35 | 1001.3 |
| 20260504230100 | 72 | 298 | 0.0 | 7.0 | 0.00 | 0.00 | 0.00 | 34 | 1001.2 |
| 20260504225600 | 73 | 304 | 0.0 | 3.0 | 0.00 | 0.00 | 0.00 | 35 | 1001.2 |
| 20260504225100 | 73 | 304 | 0.0 | 3.0 | 0.00 | 0.00 | 0.00 | 34 | 1001.1 |
| 20260504224609 | 73 | 304 | 0.0 | 5.0 | 0.00 | 0.00 | 0.00 | 35 | 1001.1 |
| 20260504224059 | 74 | 304 | 1.0 | 5.0 | 0.00 | 0.00 | 0.00 | 34 | 1001.1 |
| 20260504223559 | 74 | 330 | 1.0 | 5.0 | 0.00 | 0.00 | 0.00 | 33 | 1001.2 |
| 20260504223134 | 74 | 349 | 0.0 | 6.0 | 0.00 | 0.00 | 0.00 | 33 | 1001.2 |
| 20260504222558 | 74 | 309 | 0.0 | 8.0 | 0.00 | 0.00 | 0.00 | 34 | 1001.2 |
| 20260504222058 | 74 | 309 | 2.0 | 9.0 | 0.00 | 0.00 | 0.00 | 33 | 1001.3 |
| 20260504221557 | 74 | 294 | 0.0 | 9.0 | 0.00 | 0.00 | 0.00 | 34 | 1001.2 |
| 20260504221100 | 75 | 269 | 2.0 | 9.0 | 0.00 | 0.00 | 0.00 | 33 | 1001.3 |
| 20260504220556 | 75 | 300 | 1.0 | 5.0 | 0.00 | 0.00 | 0.00 | 34 | 1001.2 |
| 20260504220056 | 75 | 185 | 1.0 | 7.0 | 0.00 | 0.00 | 0.00 | 33 | 1001.3 |
| 20260504215556 | 75 | 290 | 1.0 | 8.0 | 0.00 | 0.00 | 0.00 | 34 | 1001.3 |
| 20260504215054 | 75 | 282 | 2.0 | 9.0 | 0.00 | 0.00 | 0.00 | 32 | 1001.4 |
| 20260504214555 | 75 | 255 | 2.0 | 9.0 | 0.00 | 0.00 | 0.00 | 33 | 1001.5 |
| 20260504214054 | 75 | 311 | 1.0 | 7.0 | 0.00 | 0.00 | 0.00 | 35 | 1001.5 |
| 20260504213554 | 75 | 270 | 2.0 | 12.0 | 0.00 | 0.00 | 0.00 | 33 | 1001.6 |
| 20260504213103 | 75 | 279 | 3.0 | 12.0 | 0.00 | 0.00 | 0.00 | 34 | 1001.6 |
| 20260504212554 | 75 | 309 | 4.0 | 11.0 | 0.00 | 0.00 | 0.00 | 33 | 1001.6 |
| 20260504212053 | 75 | 306 | 2.0 | 11.0 | 0.00 | 0.00 | 0.00 | 35 | 1001.6 |
| 20260504211552 | 75 | 268 | 2.0 | 11.0 | 0.00 | 0.00 | 0.00 | 34 | 1001.7 |
| 20260504211052 | 75 | 306 | 3.0 | 11.0 | 0.00 | 0.00 | 0.00 | 35 | 1001.7 |
| 20260504210551 | 75 | 294 | 3.0 | 11.0 | 0.00 | 0.00 | 0.00 | 38 | 1001.7 |
| 20260504210057 | 75 | 276 | 2.0 | 11.0 | 0.00 | 0.00 | 0.00 | 35 | 1001.7 |
| 20260504205552 | 74 | 295 | 1.0 | 10.0 | 0.00 | 0.00 | 0.00 | 36 | 1001.8 |
| 20260504205050 | 74 | 309 | 2.0 | 10.0 | 0.00 | 0.00 | 0.00 | 36 | 1001.7 |
| 20260504204550 | 74 | 295 | 1.0 | 6.0 | 0.00 | 0.00 | 0.00 | 36 | 1001.8 |
| 20260504204049 | 74 | 271 | 2.0 | 9.0 | 0.00 | 0.00 | 0.00 | 37 | 1001.9 |
| 20260504203548 | 74 | 247 | 1.0 | 9.0 | 0.00 | 0.00 | 0.00 | 36 | 1001.9 |
| 20260504203104 | 74 | 196 | 2.0 | 9.0 | 0.00 | 0.00 | 0.00 | 37 | 1002.1 |
| 20260504202546 | 74 | 290 | 2.0 | 12.0 | 0.00 | 0.00 | 0.00 | 37 | 1002.1 |
| 20260504202048 | 74 | 294 | 3.0 | 12.0 | 0.00 | 0.00 | 0.00 | 36 | 1002.2 |
| 20260504201549 | 74 | 272 | 3.0 | 12.0 | 0.00 | 0.00 | 0.00 | 39 | 1002.3 |
| 20260504201044 | 74 | 286 | 3.0 | 13.0 | 0.00 | 0.00 | 0.00 | 38 | 1002.3 |
| 20260504200543 | 73 | 273 | 2.0 | 13.0 | 0.00 | 0.00 | 0.00 | 38 | 1002.4 |
| 20260504200043 | 74 | 263 | 3.0 | 13.0 | 0.00 | 0.00 | 0.00 | 37 | 1002.4 |
| 20260504195542 | 73 | 140 | 1.0 | 9.0 | 0.00 | 0.00 | 0.00 | 39 | 1002.5 |
| 20260504195041 | 73 | 300 | 1.0 | 15.0 | 0.00 | 0.00 | 0.00 | 38 | 1002.5 |
| 20260504194541 | 72 | 291 | 4.0 | 15.0 | 0.00 | 0.00 | 0.00 | 41 | 1002.6 |
| 20260504194043 | 72 | 252 | 2.0 | 11.0 | 0.00 | 0.00 | 0.00 | 38 | 1002.8 |
| 20260504193542 | 73 | 284 | 2.0 | 16.0 | 0.00 | 0.00 | 0.00 | 41 | 1002.8 |
| 20260504193039 | 73 | 298 | 2.0 | 16.0 | 0.00 | 0.00 | 0.00 | 40 | 1002.8 |
| 20260504192539 | 73 | 325 | 3.0 | 11.0 | 0.00 | 0.00 | 0.00 | 41 | 1002.9 |
| 20260504192038 | 73 | 297 | 3.0 | 10.0 | 0.00 | 0.00 | 0.00 | 41 | 1003.0 |
| 20260504191537 | 73 | 281 | 2.0 | 11.0 | 0.00 | 0.00 | 0.00 | 40 | 1002.9 |
| 20260504191038 | 73 | 116 | 3.0 | 11.0 | 0.00 | 0.00 | 0.00 | 41 | 1003.1 |
| 20260504190537 | 73 | 145 | 3.0 | 11.0 | 0.00 | 0.00 | 0.00 | 42 | 1003.0 |
| 20260504190039 | 72 | 344 | 2.0 | 14.0 | 0.00 | 0.00 | 0.00 | 43 | 1003.1 |
| 20260504185535 | 73 | 243 | 3.0 | 14.0 | 0.00 | 0.00 | 0.00 | 41 | 1003.3 |
| 20260504185036 | 73 | 305 | 4.0 | 15.0 | 0.00 | 0.00 | 0.00 | 40 | 1003.4 |
| 20260504184534 | 74 | 205 | 3.0 | 15.0 | 0.00 | 0.00 | 0.00 | 41 | 1003.3 |
| 20260504184034 | 74 | 290 | 2.0 | 10.0 | 0.00 | 0.00 | 0.00 | 44 | 1003.4 |
| 20260504183533 | 73 | 278 | 3.0 | 10.0 | 0.00 | 0.00 | 0.00 | 44 | 1003.5 |
| 20260504183032 | 73 | 327 | 1.0 | 12.0 | 0.00 | 0.00 | 0.00 | 42 | 1003.5 |
| 20260504182532 | 73 | 281 | 4.0 | 12.0 | 0.00 | 0.00 | 0.00 | 45 | 1003.7 |
| 20260504182031 | 72 | 321 | 2.0 | 13.0 | 0.00 | 0.00 | 0.00 | 46 | 1003.6 |
| 20260504181536 | 73 | 360 | 5.0 | 12.0 | 0.00 | 0.00 | 0.00 | 43 | 1003.6 |
| 20260504181033 | 72 | 205 | 4.0 | 9.0 | 0.00 | 0.00 | 0.00 | 46 | 1003.7 |
| 20260504180531 | 72 | 292 | 3.0 | 11.0 | 0.00 | 0.00 | 0.00 | 47 | 1003.8 |
| 20260504180028 | 72 | 224 | 4.0 | 13.0 | 0.00 | 0.00 | 0.00 | 45 | 1003.7 |
| 20260504175527 | 71 | 223 | 2.0 | 13.0 | 0.00 | 0.00 | 0.00 | 47 | 1003.8 |
| 20260504175026 | 72 | 313 | 5.0 | 13.0 | 0.00 | 0.00 | 0.00 | 45 | 1003.9 |
| 20260504174525 | 71 | 253 | 3.0 | 11.0 | 0.00 | 0.00 | 0.00 | 46 | 1004.0 |
| 20260504174024 | 71 | 309 | 3.0 | 14.0 | 0.00 | 0.00 | 0.00 | 47 | 1003.9 |
| 20260504173524 | 71 | 166 | 3.0 | 14.0 | 0.00 | 0.00 | 0.00 | 48 | 1004.0 |
| 20260504173021 | 70 | 328 | 3.0 | 17.0 | 0.00 | 0.00 | 0.00 | 48 | 1004.0 |
| 20260504172520 | 70 | 314 | 2.0 | 17.0 | 0.00 | 0.00 | 0.00 | 46 | 1004.1 |
| 20260504172020 | 70 | 249 | 5.0 | 16.0 | 0.00 | 0.00 | 0.00 | 48 | 1004.0 |
| 20260504171520 | 70 | 302 | 3.0 | 16.0 | 0.00 | 0.00 | 0.00 | 47 | 1004.1 |
| 20260504171020 | 70 | 254 | 2.0 | 13.0 | 0.00 | 0.00 | 0.00 | 46 | 1004.1 |
| 20260504170519 | 70 | 268 | 3.0 | 13.0 | 0.00 | 0.00 | 0.00 | 48 | 1004.1 |
| 20260504151100 | 64 | 287 | 1.0 | 12.0 | 0.00 | 0.00 | 0.00 | 53 | 1005.2 |
| 20260504150559 | 64 | 288 | 4.0 | 14.0 | 0.00 | 0.00 | 0.00 | 52 | 1005.3 |
| 20260504150113 | 64 | 317 | 2.0 | 14.0 | 0.00 | 0.00 | 0.00 | 50 | 1005.3 |
| 20260504141052 | 62 | 355 | 3.0 | 11.0 | 0.00 | 0.00 | 0.00 | 51 | 1005.4 |
| 20260504140551 | 62 | 299 | 3.0 | 11.0 | 0.00 | 0.00 | 0.00 | 51 | 1005.5 |
| 20260504130540 | 58 | 312 | 2.0 | 19.0 | 0.00 | 0.00 | 0.00 | 56 | 1005.9 |
| 20260504110524 | 50 | 289 | 0.0 | 6.0 | 0.00 | 0.00 | 0.00 | 60 | 1006.1 |
| 20260504100522 | 50 | 256 | 1.0 | 7.0 | 0.00 | 0.00 | 0.00 | 59 | 1005.9 |
| 20260504081511 | 50 | 313 | 1.0 | 5.0 | 0.00 | 0.00 | 0.00 | 58 | 1006.7 |
| 20260504081011 | 50 | 300 | 1.0 | 5.0 | 0.00 | 0.00 | 0.00 | 58 | 1006.7 |
| 20260504080510 | 50 | 309 | 0.0 | 8.0 | 0.00 | 0.00 | 0.00 | 59 | 1006.7 |
| 20260504050547 | 51 | 297 | 0.0 | 2.0 | 0.00 | 0.00 | 0.00 | 56 | 1007.8 |
| 20260504045547 | 51 | 319 | 0.0 | 0.0 | 0.00 | 0.00 | 0.00 | 56 | 1007.9 |
| 20260504045043 | 52 | 319 | 0.0 | 0.0 | 0.00 | 0.00 | 0.00 | 56 | 1007.9 |
| 20260504044546 | 52 | 319 | 0.0 | 2.0 | 0.00 | 0.00 | 0.00 | 56 | 1007.9 |
| 20260504044041 | 52 | 319 | 0.0 | 3.0 | 0.00 | 0.00 | 0.00 | 56 | 1008.0 |
| 20260504043543 | 52 | 319 | 0.0 | 3.0 | 0.00 | 0.00 | 0.00 | 56 | 1008.0 |
| 20260504043041 | 52 | 318 | 0.0 | 2.0 | 0.00 | 0.00 | 0.00 | 56 | 1008.0 |
| 20260504042540 | 52 | 317 | 0.0 | 3.0 | 0.00 | 0.00 | 0.00 | 56 | 1008.0 |
| 20260504042039 | 53 | 317 | 0.0 | 7.0 | 0.00 | 0.00 | 0.00 | 56 | 1008.0 |
| 20260504041539 | 53 | 316 | 1.0 | 7.0 | 0.00 | 0.00 | 0.00 | 56 | 1008.0 |
| 20260504041041 | 53 | 294 | 1.0 | 8.0 | 0.00 | 0.00 | 0.00 | 56 | 1008.0 |
| 20260504040538 | 53 | 284 | 1.0 | 8.0 | 0.00 | 0.00 | 0.00 | 56 | 1008.0 |
| 20260504040044 | 53 | 186 | 2.0 | 10.0 | 0.00 | 0.00 | 0.00 | 55 | 1008.0 |
| 20260504035538 | 53 | 292 | 2.0 | 10.0 | 0.00 | 0.00 | 0.00 | 55 | 1007.9 |
| 20260504035037 | 53 | 299 | 2.0 | 8.0 | 0.00 | 0.00 | 0.00 | 55 | 1007.9 |
| 20260504034548 | 53 | 290 | 1.0 | 6.0 | 0.00 | 0.00 | 0.00 | 55 | 1007.8 |
| 20260504034040 | 53 | 299 | 0.0 | 6.0 | 0.00 | 0.00 | 0.00 | 56 | 1007.8 |
| 20260504033539 | 54 | 300 | 1.0 | 7.0 | 0.00 | 0.00 | 0.00 | 55 | 1007.9 |
| 20260504033037 | 54 | 276 | 1.0 | 5.0 | 0.00 | 0.00 | 0.00 | 55 | 1008.0 |
| 20260504032537 | 54 | 311 | 0.0 | 3.0 | 0.00 | 0.00 | 0.00 | 54 | 1007.9 |
| 20260504032040 | 54 | 311 | 0.0 | 5.0 | 0.00 | 0.00 | 0.00 | 54 | 1007.9 |
| 20260504031536 | 54 | 317 | 1.0 | 5.0 | 0.00 | 0.00 | 0.00 | 54 | 1007.9 |
| 20260504031035 | 54 | 332 | 1.0 | 9.0 | 0.00 | 0.00 | 0.00 | 54 | 1007.9 |
| 20260504030534 | 54 | 275 | 1.0 | 12.0 | 0.00 | 0.00 | 0.00 | 53 | 1007.9 |
| 20260504030034 | 54 | 315 | 2.0 | 12.0 | 0.00 | 0.00 | 0.00 | 53 | 1007.9 |
| 20260504025534 | 54 | 316 | 3.0 | 11.0 | 0.00 | 0.00 | 0.00 | 53 | 1007.9 |
| 20260504025034 | 54 | 307 | 2.0 | 11.0 | 0.00 | 0.00 | 0.00 | 54 | 1007.9 |
| 20260504024534 | 54 | 292 | 3.0 | 12.0 | 0.00 | 0.00 | 0.00 | 54 | 1008.0 |
| 20260504024034 | 54 | 307 | 3.0 | 12.0 | 0.00 | 0.00 | 0.00 | 54 | 1008.0 |
| 20260504023535 | 54 | 315 | 2.0 | 13.0 | 0.00 | 0.00 | 0.00 | 54 | 1008.0 |
| 20260504023033 | 54 | 306 | 5.0 | 13.0 | 0.00 | 0.00 | 0.00 | 54 | 1008.0 |
| 20260504022533 | 54 | 292 | 3.0 | 11.0 | 0.00 | 0.00 | 0.00 | 54 | 1008.1 |
| 20260504022035 | 54 | 25 | 3.0 | 12.0 | 0.00 | 0.00 | 0.00 | 54 | 1008.2 |
| 20260504021532 | 54 | 72 | 3.0 | 12.0 | 0.00 | 0.00 | 0.00 | 54 | 1008.3 |
| 20260504021032 | 54 | 275 | 2.0 | 11.0 | 0.00 | 0.00 | 0.00 | 54 | 1008.4 |
| 20260504020531 | 54 | 296 | 1.0 | 10.0 | 0.00 | 0.00 | 0.00 | 54 | 1008.4 |
| 20260504020031 | 54 | 296 | 2.0 | 10.0 | 0.00 | 0.00 | 0.00 | 54 | 1008.3 |
| 20260504015531 | 54 | 305 | 2.0 | 10.0 | 0.00 | 0.00 | 0.00 | 54 | 1008.3 |
| 20260504015031 | 54 | 305 | 1.0 | 10.0 | 0.00 | 0.00 | 0.00 | 54 | 1008.2 |
| 20260504014530 | 54 | 313 | 1.0 | 12.0 | 0.00 | 0.00 | 0.00 | 54 | 1008.2 |
| 20260504014030 | 54 | 261 | 1.0 | 12.0 | 0.00 | 0.00 | 0.00 | 54 | 1008.2 |
| 20260504013531 | 54 | 292 | 1.0 | 11.0 | 0.00 | 0.00 | 0.00 | 54 | 1008.4 |
| 20260504013040 | 54 | 286 | 4.0 | 13.0 | 0.00 | 0.00 | 0.00 | 54 | 1008.4 |
| 20260504012533 | 53 | 156 | 3.0 | 13.0 | 0.00 | 0.00 | 0.00 | 54 | 1008.4 |
| 20260504012030 | 53 | 298 | 2.0 | 11.0 | 0.00 | 0.00 | 0.00 | 55 | 1008.5 |
| 20260504011531 | 53 | 319 | 5.0 | 11.0 | 0.00 | 0.00 | 0.00 | 54 | 1008.6 |
| 20260504011030 | 54 | 323 | 2.0 | 9.0 | 0.00 | 0.00 | 0.00 | 55 | 1008.6 |
| 20260504010529 | 54 | 322 | 2.0 | 12.0 | 0.00 | 0.00 | 0.00 | 55 | 1008.6 |
| 20260504010029 | 54 | 290 | 2.0 | 12.0 | 0.00 | 0.00 | 0.00 | 55 | 1008.6 |
| 20260504005529 | 54 | 284 | 2.0 | 13.0 | 0.00 | 0.00 | 0.00 | 54 | 1008.6 |
| 20260504005029 | 54 | 294 | 4.0 | 14.0 | 0.00 | 0.00 | 0.00 | 54 | 1008.6 |
| 20260504004529 | 54 | 279 | 3.0 | 14.0 | 0.00 | 0.00 | 0.00 | 54 | 1008.8 |
| 20260504004028 | 54 | 300 | 4.0 | 21.0 | 0.00 | 0.00 | 0.00 | 54 | 1008.9 |
| 20260504003529 | 54 | 340 | 8.0 | 21.0 | 0.00 | 0.00 | 0.00 | 53 | 1008.8 |
| 20260504003029 | 54 | 14 | 6.0 | 12.0 | 0.00 | 0.00 | 0.00 | 52 | 1008.8 |
| 20260504002528 | 54 | 350 | 2.0 | 8.0 | 0.00 | 0.00 | 0.00 | 51 | 1008.7 |
| 20260504002028 | 54 | 263 | 3.0 | 8.0 | 0.00 | 0.00 | 0.00 | 51 | 1008.6 |
| 20260504001528 | 54 | 322 | 1.0 | 10.0 | 0.00 | 0.00 | 0.00 | 51 | 1008.5 |
| 20260504001028 | 54 | 325 | 3.0 | 16.0 | 0.00 | 0.00 | 0.00 | 51 | 1008.5 |
| 20260504000529 | 54 | 274 | 2.0 | 16.0 | 0.00 | 0.00 | 0.00 | 51 | 1008.4 |
| 20260504000027 | 54 | 311 | 3.0 | 15.0 | 0.00 | 0.00 | 0.00 | 51 | 1008.3 |
| 20260503235526 | 55 | 307 | 3.0 | 18.0 | 0.00 | 0.00 | 0.00 | 50 | 1008.3 |
| 20260503235026 | 55 | 293 | 4.0 | 18.0 | 0.00 | 0.00 | 0.00 | 50 | 1008.4 |
| 20260503234527 | 55 | 286 | 4.0 | 14.0 | 0.00 | 0.00 | 0.00 | 50 | 1008.5 |
| 20260503234027 | 55 | 292 | 4.0 | 12.0 | 0.00 | 0.00 | 0.00 | 49 | 1008.8 |
| 20260503233528 | 55 | 283 | 5.0 | 13.0 | 0.00 | 0.00 | 0.00 | 48 | 1008.6 |
| 20260503233030 | 55 | 311 | 4.0 | 15.0 | 0.00 | 0.00 | 0.00 | 49 | 1008.5 |
| 20260503232525 | 56 | 348 | 3.0 | 16.0 | 0.00 | 0.00 | 0.00 | 49 | 1008.4 |
| 20260503232025 | 56 | 313 | 5.0 | 18.0 | 0.00 | 0.00 | 0.00 | 48 | 1008.4 |